Regional Weather Roundup
Issued by NWS

Home | Current Version | Previous Version | Text Only | Print | Product List | Glossary Off
Versions: 1 2 3 4 5 6 7 8 9 10 11 12 13 14 15 16 17 18 19 20 21 22 23 24 25 26 27 28 29 30 31 32 33 34 35 36 37 38 39 40 41 42 43 44 45 46 47 48 49 50

000
ASUS45 KABQ 210401
RWRNM
NEW MEXICO REGIONAL WEATHER ROUNDUP
NATIONAL WEATHER SERVICE ALBUQUERQUE NM
900 PM MST SAT JAN 20 2018

NOTE: "FAIR" MEANS FEW OR NO CLOUDS BELOW 12,000 FEET AGL WITH NO
       SIGNIFICANT WEATHER OR OBSTRUCTIONS TO VISION.

      THIS PRODUCT IS RELEASED AS TWO VERSIONS.  ONE VERSION NEAR
      THE TOP OF THE HOUR CONTAINING PRELIMINARY DATA FROM ALBUQUERQUE
      AND OTHER STATIONS.  A FINAL VERSION WITH ADDITIONAL DATA IS
      ISSUED ABOUT 10 MINUTES AFTER THE HOUR.

NMZ501-503-504-510>518-210500-
NORTHWEST PLATEAU/NORTHCENTRAL MOUNTAINS

CITY           SKY/WX    TMP DP  RH WIND       PRES   REMARKS
FARMINGTON     CLOUDY    32  32 100 CALM      29.80S
LOS ALAMOS     MOCLDY    44  12  27 S7        29.77F
SANTA FE       MOCLDY    41  16  36 SE8       29.77R
TAOS           FAIR      39  14  36 SE9       29.78F WCI  33
ANGEL FIRE     FAIR      28  14  55 S6        29.81F WCI  22

$$
NMZ402-403-502-505>509-210500-
WESTCENTRAL MOUNTAINS/SOUTHWEST MOUNTAINS

CITY           SKY/WX    TMP DP  RH WIND       PRES   REMARKS
GALLUP         CLOUDY    29  26  89 SW14      29.85S WCI  18
GRANTS         LGT SNOW  34  30  85 W12G23    29.86R WCI  25
SILVER CITY    MOCLDY    44  32  63 W16       29.90R

$$
NMZ407-409-411-412-210500-
SOUTHERN DESERTS

CITY           SKY/WX    TMP DP  RH WIND       PRES   REMARKS
DEMING         CLOUDY    57  25  29 SW13      29.85S
LAS CRUCES     MOCLDY    58  22  24 SW18G25   29.86S
HOLLOMAN AFB   FAIR      53  20  28 SE18      29.84F
ALAMOGORDO     MOCLDY    57  19  23 SE15      29.84F
T OR C         CLOUDY    59  24  26 S24G38    29.80R

$$
NMZ519>523-210500-
CENTRAL VALLEYS/CENTRAL HIGHLANDS

CITY           SKY/WX    TMP DP  RH WIND       PRES   REMARKS
ALBUQUERQUE    MOCLDY    50  21  32 S9        29.77S
DOUBLE EAGLE   CLOUDY    48  21  34 SW16      29.77F
MORIARTY ARPT  FAIR      38  18  45 S6        29.81S WCI  33
CLINES CORNERS FAIR      35  16  45 SW15      29.82F WCI  25
BELEN          CLOUDY    51  19  29 SW10      29.77S
SOCORRO        FAIR      55  21  27 S15G21    29.77S

$$
NMZ524>526-539-540-210500-
SOUTHCENTRAL MOUNTAINS

CITY           SKY/WX    TMP DP  RH WIND       PRES   REMARKS
RUIDOSO        FAIR      46  18  31 SW13G21   29.87F

$$
NMZ527>531-210500-
NORTHEAST HIGHLANDS/NORTHEAST PLAINS

CITY           SKY/WX    TMP DP  RH WIND       PRES   REMARKS
LAS VEGAS      FAIR      38  15  39 S13       29.80F WCI  30
RATON          FAIR      39  16  39 S9        29.73F WCI  33
CLAYTON        FAIR      50  14  23 SW17G24   29.72S

$$
NMZ532>537-210500-
EASTCENTRAL PLAINS

CITY           SKY/WX    TMP DP  RH WIND       PRES   REMARKS
TUCUMCARI      FAIR      53  14  21 W12       29.73F
CANNON AFB     FAIR      47  15  27 SW12      29.81S
CLOVIS AIRPORT FAIR      41  13  31 S7        29.81S

$$
NMZ028-029-538-210500-
SOUTHEAST PLAINS

CITY           SKY/WX    TMP DP  RH WIND       PRES   REMARKS
ROSWELL        FAIR      55  18  23 S12       29.80S
ARTESIA        FAIR      52  18  25 S9        29.82F
CARLSBAD       FAIR      42  16  34 SW9       29.81F
HOBBS          FAIR      45  12  26 W7        29.84F


$$




USA.gov is the U.S. government's official web portal to all federal, state and local government web resources and services.